COSMOS 1802

导读 | 豆包AI

COSMOS 1802是苏联(CIS,独联体继承其航天资产)于1986年11月24日发射的“宇宙”系列卫星,运行在近地轨道,轨道参数约为953×1010千米,倾角82.9°。作为冷战时期苏联航天计划的一部分,该系列卫星多承担军用侦察、技术试验或空间观测任务,具体任务细节未公开,目前仍被纳入全球太空监视系统持续跟踪。

Basic Information
目录编号:
17159
目录名称:
COSMOS 1802
国际标识:
1986-093A
轨道中心:
EARTH
卫星名称:
COSMOS 1802
卫星全名:
--
卫星状态:
在轨 (已飞行14376 天)
发射日期:
1986-11-24 UTC
国别 :
俄罗斯(独联体) (CIS)
星等 :
--
Orbit Information
数据来源 国际轨道数据 AOE轨道数据
星历时间 2026-04-04T05:26:13+0800
7小时前
查看轨道信息
2026-04-03T05:00:00+0800
1天前
查看轨道信息
半长轴 7367.07km 7367.07km
偏心率 0.0041689 0.0041886
轨道倾角 82.928° 82.930°
近地点辐角 331.709° 334.831°
升交点赤经 235.871° 236.624°
平近点角 146.224° 153.254°
近地点 958.22km 958.075km
远地点 1019.646km 1019.791km
周期 104.882分钟 104.882分钟
每日圈数 13.729687 13.729685
Detailed Information
使用方式:
暂无
2D Orbit Map
3D Orbit Map
Orbit Altitude Analysis Chart
Orbit Inclination Analysis Chart
Orbit Comprehensive Analysis Chart
View Comprehensive Chart